Погода в Полтавке

Погода в Полтавке : погода сейчас, прогноз погоды и архив. Всё, что Вы хотите узнать о погоде в Полтавке!

Хотите узнать прогноз погоды в Полтавке? Тогда Вам сюда: Погода в Полтавке

Поиск расширенной информации на нашем сайте:

Другие новости

Новости СМИ2

Главная страница сайта

Новости сайта

03.07.2017

Напоминаем, что на нашем специализированном сайте Метеоцентр.Азия вы можете получить высокодетализированные автоматические прогнозы погоды по пунктам России, СНГ и мира в авиационном формате (включающие направление и скорость ветра, видимость, явления погоды, количество и форму облачности, нижнюю и верхнюю границу облачности).


Погода в Полтавке - сегодня

Время (UTC), дата Ветер
(°,м/с) 
Видим.   Явления Облачность Т
(°С)
Тd
(°С)
f(%) Тe
(°С)
Pmin
(гПа)
dP
(гПа)
Po
(мм)
O2
(г/м3)
Тmin Tmax R s Состояние
почвы
21 15.08.18 300 (СЗ) 10 км    ясно 
+16.2 +13.5 84 +24  1007  0.8  744  280           
00 16.08.18 270 (З) 20000 м    4/3 600 м кучево-дожд., средняя 
[Cb calv|Ac trans]
+14.1 +13.8 98 +22  1008.4  1.2  745  283           
03 16.08.18 310 (СЗ) 20000 м    ясно 
+17.2 +13.9 81 +25  1008.7  0.5  746  280  +13         
06 16.08.18 280 (З) 20000 м    6/0 средняя, верхняя 
[Ac trans|Ci sp]
+20.7 +14.6 68 +29  1008.9  0.4  746  276           
09 16.08.18 300 (СЗ) 20000 м    9/3 600 м кучево-дожд., средняя, верхняя 
[Cb calv|Ac trans|Ci sp]
+21.6 +14.1 62 +29  1009.6  0.7  746  276           
12 16.08.18 310 (СЗ) 20000 м    9/3 600 м кучево-дожд., средняя, верхняя 
[Cb calv|Ac trans|Ci sp]
+22.1 +13.9 60 +29  1009.7  746  275           
18 16.08.18 270 (З) 10 км    3/0 верхняя 
[Ci sp]
+14.5 +12.9 90 +21  1010.9  0.6  747  283           
21 16.08.18 290 (З) 10 км    ясно 
+12.9 +11.8 93 +17  1010.9  -0.1  747  285           
03 17.08.18 290 (З) 20000 м  {туман}  10/10 800 м 
[Sc]
+15.5 +14.7 95 +24  1012.4  748  282  +12.5        сухая 
06 17.08.18 310 (СЗ) 20000 м  {туман}  8/6 600 м верхняя 
[Sc|Ci sp]
+20.7 +13.8 65 +27  1011.8  748  277           
09 17.08.18 270 (З) 20000 м    5/3 600 м средняя, верхняя 
[Cu hum|Ac trans|Ci sp]
+23.8 +12.4 49 +28  1010.7  -0.9  747  275           
12 17.08.18 260 (З) 20000 м    4/0 средняя, верхняя 
[Ac trans|Ci sp]
+24.5 +13.1 49 +30  1009.6  -1.1  747  274           
18 17.08.18 230 (ЮЗ) 10 км    10/0 средняя 
[Ac und]
+19.7 +14.5 72 +29  1008.2  -0.8  745  277           
21 17.08.18 260 (З) 10 км    5/0 средняя 
[Ac trans]
+16.9 +14 83 +25  1008.4  0.1  745  280           
00 18.08.18 300 (СЗ) 20000 м    8/3 600 м кучево-дожд., средняя, верхняя 
[Cb calv|Ac trans|Ci sp]
+15 +13.8 93 +23  1009.4  0.8  746  282           
03 18.08.18 310 (СЗ) 20000 м    9/4 600 м кучево-дожд., средняя, верхняя 
[Cb calv|Ac trans|Ci sp]
+16.7 +12.4 76 +22  1010.4  1.1  747  281  +14.5         
06 18.08.18 280 (З) 20000 м    8/3 600 м средняя, верхняя 
[Sc|Ac trans|Ci sp]
+19.8 +11.8 60 +25  1010.9  0.7  747  279           
09 18.08.18 290 (З) 20000 м    8/3 600 м средняя, верхняя 
[Sc|Ac trans|Ci sp]
+21.9 +9.4 45 +22  1010.4  -0.4  747  277           
12 18.08.18 300 (СЗ) 4{10}  20000 м    8/3 600 м кучево-дожд., средняя, верхняя 
[Cb calv|Ac trans|Ci sp]
+20.1 +8.4 47 +20  1010.7  0.2  747  279           
15 18.08.18 340 (С) 20000 м    8/0 средняя, верхняя 
[Ac und|Ci sp]
+16.6 +10.3 66 +19  1011.7  0.8  748  282    +22       
18 18.08.18 330 (СЗ) 10 км    ясно 
+11.6 +9 84 +13  1012.6  0.5  748  288           
21 18.08.18 340 (С) 10 км  зарница  4/3 600 м кучево-дожд., верхняя 
[Cb calv|Ci sp]
+10.3 +8.4 88 +10  1012  -0.6  748  289           
00 19.08.18 310 (СЗ) 20000 м  в посл. час ливневой дождь  10/5 600 м кучево-дожд., средняя, верхняя 
[Cb calv|Ac trans|Ci sp]
+11.1 +10.1 94 +13  1013  749  288           
03 19.08.18 020 (С) 20000 м  в посл. час ливневой дождь  10/5 600 м кучево-дожд., средняя 
[Cb calv|Ac As]
+12.8 +12 95 +17  1012  -0.9  748  286  +8.9      влажная 
09 19.08.18 020 (С) 20000 м    10/10 1080 м 
[Sc]
+15.2 +11 76 +18  1011.1  -0.5  747  283           
Время (UTC), дата Ветер
(°,м/с) 
Видим.   Явления Облачность Т
(°С)
Тd
(°С)
f(%) Тe
(°С)
Pmin
(гПа)
dP
(гПа)
Po
(мм)
O2
(г/м3)
Тmin Tmax R s Состояние
почвы

Для получения пояснительной информации подведите курсор к названию столбца.

ПОГОДА в Полтавке - архив

Всё, что Вы хотите узнать о погоде в Полтавке - удобно и подробно!

Выберите нужную дату (начиная с 1 января 2015* года) и нажмите кнопку "Найти".
Будут отображены архивные сводки погоды по пункту Полтавка, начиная с указанной даты.


Отображать данные в формате CSV (для использования в таблицах Excel)


Внимание! Наш архив погоды предназначен исключительно для личного некоммерческого использования в познавательных целях. Если Вам необходимы официальные справки о состоянии погоды (для производственных, юридических, коммерческих и т.п. целей), обращайтесь в органы Росгидромета.

*Примечание: данная дата относится к архиву по метеостанциям СССР (Россия, СНГ, Балтия).
Архив по метеостанциям Зарубежной Европы и Азии (кроме Китая) хранится 10 дней, по другим регионам земного шара (Китай, Африка, Америка, Австралия, Океания) - 1 день.

Полтавка - район местоположения метеостанции


Название, широта, долгота, высота метеостанции:
Полтавка 54.4°ш. 71.8°д. 125 м над ур. моря [Российская Федерация]

Дополнительная информация

В oтличие oт бoльшинства пoгoдных сайтoв мы публикуем пoдрoбную метеoинфoрмацию в детальнoм прoфессиoнальнoм фoрмате.

Характеристики температуры и влажнoсти вoздуха измеряются на высoте 2 м в тени вдали oт зданий и деревьев.
Скoрoсть ветра измеряется на высoте 10 м (на урoвне рoста челoвека скoрoсть ветра ниже в 1.5-2 раза). Если метеoстанция нахoдится в гoрoде или в лесу, тo скoрoсть ветра занижена на 2-4 м/с пo сравнению с oткрытым местoм. Скoрoсть ветра над акватoриями крупных рек и oзёр, а также на вершинах хoлмoв на 2-5 м/с выше, чем в oбычных услoвиях.
Атмoсфернoе давление в разных тoчках местнoсти мoжет значительнo oтличаться oт давления на метеoстанции, в зависимoсти oт услoвий рельефа (при пoдъёме на 10 м давление пoнижается примернo на 1 мм рт.ст.).